Simultaneous Nadir Overpasses (SNOs) Predictions

Prediction of SNOs between GOES-15 and METOP-A Satellite Orbit:

Table of predicted SNOs for the next 14.0 days since TLE Epoch: 5/22/2020
Index Date Time (GOES-15) GOES-15 Lat,Lon METOP-A Lat,Lon Distance(km) Time Diff (sec)
1 05/23/2020 05:25:34 -0.20,-128.23 -0.64,-130.38 244.24 80
2 05/24/2020 05:02:14 -0.19,-128.22 0.41,-125.39 321.67 80
3 05/25/2020 17:21:06 0.19,-128.24 0.56,-129.99 199.34 80
4 05/26/2020 17:03:06 0.18,-128.22 -0.55,-125.01 366.30 80
5 05/28/2020 05:22:06 -0.18,-128.15 -0.52,-129.63 169.03 80
6 05/29/2020 04:58:46 -0.17,-128.13 0.59,-124.65 396.15 80
7 05/30/2020 17:17:39 0.17,-128.14 0.38,-129.25 126.02 80
8 05/31/2020 16:59:38 0.17,-128.12 -0.67,-124.26 439.28 80
9 06/02/2020 05:18:38 -0.16,-128.04 -0.33,-128.89 96.33 80
10 06/03/2020 04:55:18 -0.17,-128.02 0.72,-123.90 468.44 80
11 06/04/2020 17:14:10 0.16,-128.02 0.26,-128.50 54.87 80




NCC Satellite Simultaneous Nadir Overpasses (SNOs) Prediction Service
